Погода в Сафоново

Россия / Мурманская область     69°03′22″N   33°17′31″E
В апреле 2022 года жителям России запретили посещать сайт meteo.paraplan.net по решению Генеральной прокуратуры. Аудитория сайта уменьшилась в 10 раз. Владельцы сайта не видят смысла в поддержке погодного сервера в таких условиях. Сайт будет закрыт в октябре.
темп.,
°C
ветер,
м/с
пор.,
м/с
влажн.,
%
обл.,
%
осадки,
мм/ч
давл.,
гПа
погр.,
м
5 октября, ср
ср500:00+4св0498100 0.8 1011522
03:00+3ююз2498100 1.3 1009589
06:00+4ююз3795100 0.0 1009502
09:00+4ю3791100 0.0 1009387
12:00+6ююз478058 0.0 1008534
15:00+6ю3885100 0.1 1007447
18:00+5ююв2290100 0.2 100672
21:00+5ю399646 1.8 1005344
6 октября, чт
чт600:00+5ююз41092100 0.0 1004337
03:00+4ююв36945 0.0 1002135
06:00+6ююв4119299 0.0 998387
09:00+6ююв71681100 0.0 993639
12:00+7ююв112185100 0.9 986775
15:00+9ю101981100 1.4 981915
18:00+10ююз9168278 0.1 980887
21:00+8ююз91672100 0.2 9801021
7 октября, пт
пт700:00+7юз101674100 0.0 9811077
03:00+7юз101674100 0.0 9821153
06:00+6зюз10177524 0.0 985776
09:00+5зюз816751 0.0 987615
12:00+7зюз714685 0.0 989806
15:00+8юз611685 0.0 991606
18:00+5юз510775 0.0 994281
21:00+4ююз511850 0.0 994267
8 октября, сб
сб800:00+3ю5129145 0.0 994273
03:00+5ю61287100 0.0 993427
06:00+6ю71387100 0.1 991656
09:00+6ю61289100 0.1 990455
12:00+8ююз51085100 0.0 989593
15:00+7ю3594100 0.9 987220
18:00+6ююз3693100 2.8 987205
21:00+5ююз499089 2.8 988279
9 октября, вс
вс900:00+4юз499343 0.0 988250
03:00+6юз5978100 0.0 989420
06:00+5юз498086 0.0 989322
09:00+4юз4108764 0.0 990430
12:00+4юз5778100 0.0 991883
15:00+5юз4774100 0.1 992549
18:00+4зюз2581100 0.0 993167
21:00+4з3682100 0.0 995282